TimeCDT,TemperatureF,Dew PointF,Humidity,Sea Level PressureIn,VisibilityMPH,Wind Direction,Wind SpeedMPH,Gust SpeedMPH,PrecipitationIn,Events,Conditions,WindDirDegrees,DateUTC
12:14 AM,59.0,55.4,88,29.97,7.0,West,6.9,-,N/A,,Scattered Clouds,260,2013-07-10 05:14:00
12:34 AM,59.0,55.4,88,29.96,7.0,West,6.9,-,N/A,,Scattered Clouds,270,2013-07-10 05:34:00
12:54 AM,57.2,55.4,94,29.97,7.0,West,5.8,-,N/A,,Scattered Clouds,270,2013-07-10 05:54:00
1:14 AM,57.2,53.6,88,29.97,7.0,West,6.9,-,N/A,,Scattered Clouds,270,2013-07-10 06:14:00
1:34 AM,57.2,53.6,88,29.97,10.0,West,5.8,-,N/A,,Clear,280,2013-07-10 06:34:00
1:54 AM,57.2,53.6,88,29.97,7.0,West,6.9,-,N/A,,Clear,270,2013-07-10 06:54:00
2:14 AM,57.2,53.6,88,29.97,7.0,West,8.1,-,N/A,,Clear,270,2013-07-10 07:14:00
2:34 AM,57.2,53.6,88,29.98,7.0,West,4.6,-,N/A,,Clear,260,2013-07-10 07:34:00
2:54 AM,57.2,53.6,88,29.98,7.0,West,4.6,-,N/A,,Clear,270,2013-07-10 07:54:00
3:14 AM,55.4,51.8,88,29.98,7.0,West,4.6,-,N/A,,Clear,260,2013-07-10 08:14:00
3:33 AM,55.4,51.8,88,29.98,7.0,West,4.6,-,N/A,,Clear,280,2013-07-10 08:33:00
3:54 AM,55.4,51.8,88,29.98,7.0,West,4.6,-,N/A,,Clear,270,2013-07-10 08:54:00
4:14 AM,55.4,51.8,88,29.98,7.0,West,4.6,-,N/A,,Clear,270,2013-07-10 09:14:00
4:34 AM,55.4,51.8,88,29.99,7.0,West,5.8,-,N/A,,Clear,260,2013-07-10 09:34:00
4:54 AM,53.6,50.0,88,29.99,7.0,West,6.9,-,N/A,,Clear,260,2013-07-10 09:54:00
5:14 AM,53.6,50.0,88,30.00,7.0,West,5.8,-,N/A,,Scattered Clouds,260,2013-07-10 10:14:00
5:34 AM,53.6,50.0,88,30.00,7.0,West,6.9,-,N/A,,Clear,260,2013-07-10 10:34:00
5:54 AM,53.6,50.0,88,30.00,4.0,WSW,5.8,-,N/A,,Clear,250,2013-07-10 10:54:00
6:14 AM,53.6,50.0,88,30.01,4.0,West,5.8,-,N/A,,Clear,260,2013-07-10 11:14:00
6:34 AM,55.4,51.8,88,30.01,5.0,West,6.9,-,N/A,,Clear,260,2013-07-10 11:34:00
6:54 AM,55.4,51.8,88,30.01,5.0,West,6.9,-,N/A,,Clear,260,2013-07-10 11:54:00
7:14 AM,57.2,53.6,88,30.01,5.0,West,8.1,-,N/A,,Clear,260,2013-07-10 12:14:00
7:34 AM,57.2,53.6,88,30.01,5.0,West,8.1,-,N/A,,Clear,270,2013-07-10 12:34:00
7:54 AM,59.0,55.4,88,30.01,7.0,West,5.8,-,N/A,,Clear,270,2013-07-10 12:54:00
8:14 AM,60.8,55.4,82,30.01,7.0,West,8.1,-,N/A,,Clear,270,2013-07-10 13:14:00
8:34 AM,60.8,57.2,88,30.02,7.0,West,8.1,-,N/A,,Clear,260,2013-07-10 13:34:00
8:54 AM,62.6,57.2,82,30.02,7.0,West,6.9,-,N/A,,Clear,270,2013-07-10 13:54:00
9:14 AM,64.4,60.8,88,30.02,7.0,West,6.9,-,N/A,,Clear,260,2013-07-10 14:14:00
9:34 AM,64.4,60.8,88,30.03,7.0,WSW,6.9,-,N/A,,Clear,240,2013-07-10 14:34:00
9:54 AM,64.4,60.8,88,30.03,7.0,West,6.9,-,N/A,,Clear,260,2013-07-10 14:54:00
10:14 AM,66.2,60.8,83,30.03,7.0,West,6.9,-,N/A,,Clear,270,2013-07-10 15:14:00
10:34 AM,68.0,60.8,78,30.02,7.0,West,6.9,-,N/A,,Clear,270,2013-07-10 15:34:00
10:54 AM,69.8,60.8,73,30.02,7.0,West,10.4,-,N/A,,Clear,280,2013-07-10 15:54:00
11:14 AM,69.8,60.8,73,30.02,7.0,West,8.1,-,N/A,,Clear,280,2013-07-10 16:14:00
11:34 AM,71.6,62.6,73,30.02,7.0,West,3.5,-,N/A,,Clear,280,2013-07-10 16:34:00
11:54 AM,73.4,62.6,69,30.02,7.0,West,5.8,-,N/A,,Scattered Clouds,270,2013-07-10 16:54:00
12:14 PM,73.4,60.8,65,30.02,10.0,West,8.1,-,N/A,,Scattered Clouds,280,2013-07-10 17:14:00
12:34 PM,73.4,62.6,69,30.02,7.0,West,10.4,-,N/A,,Scattered Clouds,270,2013-07-10 17:34:00
12:54 PM,71.6,60.8,69,30.02,7.0,WNW,9.2,-,N/A,,Mostly Cloudy,290,2013-07-10 17:54:00
1:14 PM,73.4,60.8,65,30.02,7.0,West,9.2,-,N/A,,Scattered Clouds,280,2013-07-10 18:14:00
1:33 PM,71.6,60.8,69,30.01,7.0,WNW,4.6,-,N/A,,Clear,300,2013-07-10 18:33:00
1:54 PM,69.8,60.8,73,30.03,2.5,WNW,5.8,-,0.08,Rain-Thunderstorm,Heavy Thunderstorms and Rain,300,2013-07-10 18:54:00
2:14 PM,64.4,57.2,77,30.04,7.0,West,9.2,-,0.05,Rain-Thunderstorm,Light Thunderstorms and Rain,270,2013-07-10 19:14:00
2:34 PM,62.6,57.2,82,30.03,7.0,WNW,3.5,-,0.06,Rain-Thunderstorm,Light Thunderstorms and Rain,290,2013-07-10 19:34:00
2:54 PM,64.4,59.0,83,30.03,7.0,NW,6.9,-,0.07,,Drizzle,320,2013-07-10 19:54:00
3:14 PM,64.4,57.2,77,30.02,5.0,NW,6.9,-,N/A,Rain,Light Rain,320,2013-07-10 20:14:00
3:34 PM,69.8,60.8,73,30.01,10.0,WNW,4.6,-,N/A,,Scattered Clouds,290,2013-07-10 20:34:00
3:54 PM,71.6,62.6,73,30.01,10.0,WNW,3.5,-,N/A,,Clear,300,2013-07-10 20:54:00
4:14 PM,69.8,62.6,78,30.00,7.0,WNW,3.5,-,N/A,,Clear,290,2013-07-10 21:14:00
4:34 PM,69.8,62.6,78,30.00,7.0,WNW,3.5,-,N/A,,Clear,300,2013-07-10 21:34:00
4:53 PM,71.6,64.4,78,30.00,7.0,SW,5.8,-,N/A,,Scattered Clouds,230,2013-07-10 21:53:00
5:14 PM,73.4,64.4,73,30.00,7.0,WNW,4.6,-,N/A,,Scattered Clouds,290,2013-07-10 22:14:00
5:34 PM,73.4,62.6,69,30.00,7.0,West,8.1,-,N/A,,Clear,280,2013-07-10 22:34:00
5:53 PM,73.4,62.6,69,29.99,7.0,West,5.8,-,N/A,,Clear,270,2013-07-10 22:53:00
6:14 PM,73.4,60.8,65,29.99,7.0,WNW,6.9,-,N/A,,Clear,290,2013-07-10 23:14:00
6:34 PM,73.4,60.8,65,29.99,7.0,WNW,5.8,-,N/A,,Clear,300,2013-07-10 23:34:00
6:54 PM,73.4,60.8,65,30.00,7.0,WNW,5.8,-,N/A,,Clear,290,2013-07-10 23:54:00
7:14 PM,73.4,60.8,65,29.99,7.0,WNW,4.6,-,N/A,,Clear,290,2013-07-11 00:14:00
7:34 PM,73.4,60.8,65,29.99,7.0,West,3.5,-,N/A,,Clear,270,2013-07-11 00:34:00
7:54 PM,73.4,60.8,65,29.99,7.0,West,3.5,-,N/A,,Clear,260,2013-07-11 00:54:00
8:14 PM,71.6,60.8,69,29.99,7.0,WSW,3.5,-,N/A,,Clear,250,2013-07-11 01:14:00
8:34 PM,71.6,60.8,69,29.99,7.0,WSW,3.5,-,N/A,,Clear,240,2013-07-11 01:34:00
8:54 PM,69.8,60.8,73,29.99,7.0,Calm,Calm,-,N/A,,Clear,0,2013-07-11 01:54:00
9:14 PM,66.2,60.8,83,30.00,7.0,WSW,3.5,-,N/A,,Clear,240,2013-07-11 02:14:00
9:34 PM,64.4,60.8,88,30.00,7.0,Calm,Calm,-,N/A,,Clear,0,2013-07-11 02:34:00
9:54 PM,64.4,60.8,88,30.01,7.0,Calm,Calm,-,N/A,,Clear,0,2013-07-11 02:54:00
10:14 PM,62.6,57.2,82,30.01,7.0,Calm,Calm,-,N/A,,Clear,0,2013-07-11 03:14:00
10:34 PM,60.8,57.2,88,30.01,7.0,Calm,Calm,-,N/A,,Clear,0,2013-07-11 03:34:00
10:54 PM,60.8,57.2,88,30.01,7.0,SSW,3.5,-,N/A,,Clear,210,2013-07-11 03:54:00
11:14 PM,60.8,57.2,88,30.01,7.0,SSW,3.5,-,N/A,,Clear,200,2013-07-11 04:14:00
11:34 PM,60.8,57.2,88,30.02,7.0,SSW,3.5,-,N/A,,Clear,200,2013-07-11 04:34:00
11:54 PM,60.8,57.2,88,30.02,7.0,SSW,3.5,-,N/A,,Clear,200,2013-07-11 04:54:00